Location: Unspecified
(0.0000°N, 0.0000°E)
Time: 12:45:51
(UTC+00:00)

N. Korean satellite - Pass Details

Date: 15 December 2017
Orbit: 461 x 513 km, 97.2° (Epoch: 16 December)

Event Time Altitude Azimuth Distance (km) Brightness Sun altitude
Rises 19:11:29 0° 202° (SSW) 2,550 10.9 -17.4°
Reaches altitude 10° 19:14:26 10° 229° (SW) 1,679 10.4 -18.1°
Maximum altitude 19:16:13 13° 259° (W) 1,490 10.1 -18.5°
Drops below altitude 10° 19:18:01 10° 289° (WNW) 1,690 9.9 -18.9°
Sets 19:21:01 0° 317° (NW) 2,581 10.5 -19.6°
